Location: Berlin
(52.5171°N, 13.3759°E)
Time: 20:43:00

Tiangong 2 - Visible Passes

Search period start: 20 March 2018 00:00
Search period end: 30 March 2018 01:00
Orbit: 383 x 388 km, 42.8° (Epoch: 20 March)

Date Brightness Start Highest point End Pass type
(mag) Time Alt. Az. Time Alt. Az. Time Alt. Az.
20 Mar 3.4 05:11:37 10° SW 05:13:21 14° S 05:15:04 10° SSE visible
21 Mar 3.4 04:15:02 14° SSE 04:15:02 14° SSE 04:16:16 10° SE visible
22 Mar 3.4 04:50:48 11° SSW 04:51:24 12° SSW 04:52:38 10° S visible
